Regional Weather Roundup
Issued by NWS

Home | Current Version | Previous Version | Graphics & Text | Print | Product List | Glossary On
Versions: 1 2 3 4 5 6 7 8 9 10 11 12 13 14 15 16 17 18 19 20 21 22 23 24 25 26 27 28 29 30 31 32 33 34 35 36 37 38 39 40 41 42 43 44 45 46 47 48 49 50
000
ASUS43 KBIS 291310
RWRND

NORTH DAKOTA REGIONAL WEATHER ROUNDUP
NATIONAL WEATHER SERVICE BISMARCK ND
800 AM CDT SAT APR 29 2017

NOTE: "FAIR" INDICATES FEW OR NO CLOUDS BELOW 12,000 FEET WITH NO
SIGNIFICANT WEATHER AND/OR OBSTRUCTIONS TO VISIBILITY.


NDZ001>003-009>011-017-291400-
NORTHWEST NORTH DAKOTA

CITY           SKY/WX    TMP DP  RH WIND       PRES   REMARKS
WILLISTON      FAIR      36  28  73 N3        30.24R
MINOT          FAIR      45  21  38 SW3       30.22R
MINOT AFB      SUNNY     42  25  50 S5        30.21R
$$

NDZ018>021-031>035-040>046-291400-
SOUTHWEST NORTH DAKOTA

CITY           SKY/WX    TMP DP  RH WIND       PRES   REMARKS
BISMARCK       FAIR      33  27  78 CALM      30.28R
DICKINSON      FAIR      35  25  66 S3        30.22S
GARRISON         N/A     34  28  79 CALM      30.24R
HETTINGER ARPT MOSUNNY   30  24  78 CALM      30.26R
$$

NDZ004>008-012>016-024-026-027-054-291400-
NORTHEAST NORTH DAKOTA

CITY           SKY/WX    TMP DP  RH WIND       PRES   REMARKS
GRAND FORKS    MOSUNNY   38  29  70 CALM      30.29R
GRND FRKS AFB  SUNNY     38  24  58 CALM      30.29R
DEVILS LAKE    FAIR      38  33  82 SE3       30.27R
$$

NDZ022-023-025-028>030-036>039-047>053-291400-
SOUTHEAST NORTH DAKOTA

CITY           SKY/WX    TMP DP  RH WIND       PRES   REMARKS
FARGO          SUNNY     34  30  85 N3        30.27R
JAMESTOWN      FAIR      35  32  88 NW3       30.26R
$$





USA.gov is the U.S. government's official web portal to all federal, state and local government web resources and services.